Fryeburg, ME

8:58 AM EST on February 21, 2018 (GMT -0500)
Eastern Slopes Regional

Weather History for KIZG - June, 2012

Change the Weather History Date:

Thursday, June 21, 2012

  Actual Average Record
Temperature  
Mean Temperature 80 °F -  
Max Temperature 91 °F 78 °F 91 °F (2012)
Min Temperature 70 °F 51 °F 41 °F (2014)
Cooling Degree Days 16    
Growing Degree Days 30 (Base 50)    
Moisture  
Dew Point 68 °F    
Average Humidity 64    
Maximum Humidity 97    
Minimum Humidity 44    
Precipitation  
Precipitation 0.00 in - - ()
Sea Level Pressure  
Sea Level Pressure 29.77 in    
Wind  
Wind Speed 5 mph (West)    
Max Wind Speed 14 mph    
Max Gust Speed 23 mph    
Visibility 10 miles    
Events      
Averages and records for this station are not official NWS values.
T = Trace of Precipitation, MM = Missing Value Source: NWS Daily Summary

Daily Weather History Graph

Daily Weather History Graph

Search for Another Location

Airport or City:

Trip Planner

Search our weather history database for the weather conditions in past years. The results will help you decide how hot, cold, wet, or windy it might be!

Date:

Astronomy

Jun. 21, 2012 Rise Set
Actual Time 5:01 AM EDT 8:30 PM EDT
Civil Twilight 4:24 AM EDT 9:06 PM EDT
Nautical Twilight 3:36 AM EDT 9:54 PM EDT
Astronomical Twilight 2:35 AM EDT 10:55 PM EDT
Moon 7:00 AM EDT 9:46 PM EDT
Length of Visible Light 16h 41m
Length of Day
15h 29m
Waxing Crescent, 4% of the Moon is Illuminated
Jun 21
Waxing Crescent
Jun 26
First Quarter
Jul 3
Full
Jul 10
Last Quarter
Jul 19
New

Hourly Weather History & Observations

Time (EDT) Temp. Heat Index Dew Point Humidity Pressure Visibility Wind Dir Wind Speed Gust Speed Precip Events Conditions
12:54 AM 78.1 °F - 64.9 °F 64% 29.84 in 10.0 mi West 6.9 mph - N/A   Clear
1:54 AM 73.0 °F - 66.0 °F 79% 29.83 in 10.0 mi WSW 3.5 mph - N/A   Clear
2:54 AM 73.0 °F - 66.9 °F 81% 29.82 in 10.0 mi West 6.9 mph - N/A   Clear
3:54 AM 81.0 °F 83.0 °F 66.0 °F 60% 29.80 in 10.0 mi WNW 13.8 mph 23.0 mph N/A   Clear
4:54 AM 80.1 °F 82.1 °F 66.0 °F 62% 29.81 in 10.0 mi West 5.8 mph - N/A   Clear
5:54 AM 80.1 °F 82.1 °F 66.0 °F 62% 29.81 in 10.0 mi WNW 8.1 mph - N/A   Clear
6:54 AM 81.0 °F 83.0 °F 66.0 °F 60% 29.81 in 10.0 mi West 8.1 mph - 0.00 in   Clear
7:54 AM 82.9 °F 85.0 °F 66.0 °F 56% 29.81 in 10.0 mi West 5.8 mph - N/A   Clear
8:54 AM 81.0 °F 83.8 °F 68.0 °F 65% 29.81 in 10.0 mi Calm Calm - N/A   Scattered Clouds
9:54 AM 84.0 °F 86.3 °F 66.0 °F 55% 29.79 in 10.0 mi ESE 5.8 mph - N/A   Scattered Clouds
10:54 AM 86.0 °F 87.6 °F 64.9 °F 49% 29.79 in 10.0 mi Calm Calm - N/A   Overcast
12:54 PM 86.0 °F 90.7 °F 70.0 °F 59% 29.78 in 10.0 mi South 4.6 mph - N/A   Mostly Cloudy
1:54 PM 89.1 °F 93.7 °F 69.1 °F 52% 29.78 in 10.0 mi East 5.8 mph - 0.00 in   Overcast
2:54 PM 90.0 °F 96.4 °F 71.1 °F 54% 29.75 in 10.0 mi Calm Calm - N/A   Mostly Cloudy
3:54 PM 90.0 °F 94.5 °F 69.1 °F 50% 29.74 in 10.0 mi Variable 4.6 mph - N/A   Partly Cloudy
4:54 PM 91.9 °F 95.4 °F 66.9 °F 44% 29.73 in 10.0 mi WNW 8.1 mph - N/A   Clear
5:54 PM 91.0 °F 94.3 °F 66.9 °F 45% 29.71 in 10.0 mi WNW 6.9 mph - N/A   Clear
6:54 PM 90.0 °F 92.8 °F 66.9 °F 46% 29.71 in 10.0 mi WNW 5.8 mph - N/A   Clear
7:54 PM 82.0 °F 86.3 °F 71.1 °F 69% 29.73 in 10.0 mi SSW 3.5 mph - N/A   Clear
8:54 PM 75.9 °F - 71.1 °F 85% 29.73 in 10.0 mi Calm Calm - N/A   Clear
9:54 PM 73.0 °F - 70.0 °F 90% 29.74 in 10.0 mi Calm Calm - N/A   Clear
10:54 PM 70.0 °F - 69.1 °F 97% 29.75 in 7.0 mi Calm Calm - N/A   Clear
11:54 PM 71.1 °F - 69.1 °F 93% 29.74 in 9.0 mi Calm Calm - N/A   Scattered Clouds